Regional Weather Roundup
Issued by NWS Albany, NY

Home | Current Version | Previous Version | Graphics & Text | Print | Product List | Glossary On
Versions: 1 2 3 4 5 6 7 8 9 10 11 12 13 14 15 16 17 18 19 20 21 22 23 24 25 26 27 28
000
ASUS41 KALY 301110
RWRALY

NEW YORK STATE HOURLY WEATHER ROUNDUP
NATIONAL WEATHER SERVICE ALBANY NY
700 AM EDT TUE AUG 30 2016

NOTE: "FAIR" INDICATES FEW OR NO CLOUDS BELOW 12,000 FEET WITH NO
SIGNIFICANT WEATHER AND/OR NO OBSTRUCTIONS TO VISIBILITY.

NYZ032-033-038>043-046>054-057>066-NYZ062>081-082-084-301200-
EAST


CITY           SKY/WX    TMP DP  RH WIND       PRES   REMARKS
ALBANY         PTCLDY    56  53  90 NW5       30.20R
GLENS FALLS    PTCLDY    53  51  93 CALM      30.20R FOG
POUGHKEEPSIE   CLEAR     55  54  96 CALM      30.18R
NEWBURGH       CLEAR     59  57  94 VRB5      30.21R
MONTGOMERY     CLEAR     57  55  93 CALM      30.19R
WHITE PLAINS   PTCLDY    65  53  65 VRB3      30.17R
ISLIP          PTCLDY    68  61  78 E6        30.16R
NEW YORK CITY  PTCLDY    73  60  63 E8        30.16R
CENTRAL PARK   CLEAR     70  58  65 CALM      30.19R
$$

NYZ005>009-017-018-044>046-055-056-301200-
CENTRAL


CITY           SKY/WX    TMP DP  RH WIND       PRES   REMARKS
FULTON         CLEAR     53  53 100 CALM      30.19S
SYRACUSE       PTCLDY    56  55  97 SE3       30.19S
ROME           MOCLDY    54  54 100 E3        30.22F
ELMIRA         FOG       56  55  97 CALM      30.22R VSB<1/4
BINGHAMTON     CLEAR     56  54  93 CALM      30.22S
MONTICELLO     CLEAR     54  54 100 N3        30.23S
$$

NYZ026>034-041>043-087-301200-
NORTH


CITY           SKY/WX    TMP DP  RH WIND       PRES   REMARKS
WATERTOWN      CLEAR     53  51  93 CALM      30.18R
FORT DRUM      NOT AVBL
MASSENA        CLEAR     53  51  93 CALM      30.18S
SARANAC LAKE   FOG       50  49  96 S3        30.20S VSB<1/4
PLATTSBURGH    PTCLDY    56  53  90 CALM      30.16S
$$

NYZ001>004-010>016-019>021-085-301200-
WEST


CITY           SKY/WX    TMP DP  RH WIND       PRES   REMARKS
NIAGARA FALLS  MOCLDY    18  15  88 CALM      30.18S
BUFFALO        PTCLDY    61  57  87 S5        30.18S
DUNKIRK        PTCLDY    59  56  89 SE3       30.19R
JAMESTOWN      CLOUDY    57  54  88 CALM      30.24R VSB<1/4
WELLSVILLE     FOG       53  51  93 CALM      30.26R VSB 1/4
ROCHESTER      MOCLDY    58  57  97 SW5       30.19S
PENN YAN       CLOUDY    59  58  96 VRB3      30.22R FOG
$$

             KEY
       WCI = WIND CHILL INDEX
       VSB = VISIBILITY
       HX  = HEAT INDEX
$$




USA.gov is the U.S. government's official web portal to all federal, state and local government web resources and services.